STARLINK-11385, 62014

Orbit data source: Space-Track

STARLINK-11385, 62014 is a payload satellite owned by SpaceX/Seattle (US) in LEO that was launched on Mon, 18 Nov 2024 UTC via an FALCON 9 launch vehicle from the Air Force Western Test Range (AFWTR). Payload-class satellites include a variety of spacecraft equipped with specific instruments for various scientific and technological missions. These include communications satellites like Starlink; space stations such as the ISS; scientific satellites like the Hubble; Earth observation satellites from companies like Planet Labs, Umbra, and HawkEye 360; GPS; miniature CubeSats for education and research; and military/defense satellites.

Loading next visibility...
Identifier
62014, 2024-213G
Orbit
LEO
Last TLE update
2 hours ago
Origin
Manufacturer
SpaceX/Seattle
Mission
Operational Commercial Communications
Bus & Motor
STARLINK V2M, Unknown motor
Mass
730 kg wet, ~700 kg dry
Launch date (UTC)
2024-11-18 (6 months ago)
Launch vehicle
FALCON 9
Launch site
Air Force Western Test Range (AFWTR)
Object type
Payload
Rocket body
Debris
Shape & HBR
Box + 2 Pan, 29 m
Radar Cross Section
36.964 m², Large (>1 m²)

Expand to show TLE details & history

TLE from 2 hours ago
0 STARLINK-11385
1 62014U 24213G   25129.22780210  .00000492  00000-0  89184-5 0  9996
2 62014  53.1584 102.3240 0001140  91.7434 268.3714 15.69712469 28097
Epoch: 2025-05-09T05:28Z
Definitive object data (Epoch: 2025-05-09T05:28:02.101Z)
Latitude
-0.00006°
Longitude
153.02824°
Altitude
360.656 km
Speed
7.694 km/s
True Right ascension
06h 49m 17s
True Declination
0° 00' 00"
Sunlit
Object was in daylight at TLE epoch
Visualization TLE readout
Latitude
41.16415°
Longitude
-68.04147°
Altitude
362.903 km
Speed
7.697 km/s
Apparent Right ascension
20h 37m 04s
Apparent Declination
31° 23' 56"
Sunlit
Object is in full shadow
Visualization observer readout
Local Sidereal Time
15:40:30
Azimuth
73.07° E
Elevation
30.877°
Doppler factor
1
Orbital elements
Apogee altitude
360.749 km
Perigee altitude
359.212 km
Semi-major axis
6,738.118 km
Eccentricity
0.000114
Inclination
53.1584°
RAAN
102.324°
Arg. of periapsis
91.7434°
True anomaly
268.35834°
Mean anomaly
268.3714°
Eccentric anomaly
268.36487°
Mean motion
3.92406 °/min
BSTAR
0.0000089184
Orbital period
91.74 mins
Loading maneuver chart data...
Loading SW <> Apogee altitude chart data...
Loading historical data...
Loading historical data...
Loading historical data...
Loading historical data...
Loading historical data...
Loading historical data...
Loading historical data...

STARLINK-11385 Visibility forecast

Observer location: undefined°, undefined°

Span
Click to sort rows by Start time (UTC) header in descending order
Start Az.
Max El. time (UTC)
Max El. Az.
Max El.
End time (UTC)
End Az.
4 mins2025-05-10 01:33:29.628Z273.852° WNW2025-05-10 01:34:29.628Z303.211° NW27.229°2025-05-10 01:37:29.628Z32.125° NE
|